Current weather by "City, St" or "zip code"  
 

Current Conditions: Pecos, Pecos Municipal Airport, TX

Partly Cloudy


69.0 F

Last Updated on Sep 18 2020, 1:35 am CDT
Humidity: 62%
Wind Speed: N 0.0 mph
Barometer 30.16 in
Dewpoint: 55.9 F
Visibility: 10.00 mi
Precip: --
Heat Index: NA
Wind Chill: NA
Current conditions at:

Pecos, Pecos Municipal Airport, TX (KPEQ)

Lat: 31.38222 Lon: 103.51056

Local Radar Image active severe weather and emergency alerts image image weather storm and storm spotter reports image weather observation monitoring service image
Local
Radar
Active
Alerts
Storm Reports Obs
Monitoring

Sign-up For Email & Text Message Weather Alert Notification Services



Advertise Here

Observation History for Pecos, Pecos Municipal Airport, TX


Time Wind
(mph)
Vis
(mi)
Weather Precip (in) Temperature (F) Relative
Humidity
Wind
Chill
(F)
Heat
Index
(F)
Pressure
Air Dwpt altimeter
(in)
sea level
(mb)
Rmks
1:35 am CDT N 0.0 10.00 Partly Cloudy -- 69.0 55.9 62% NA NA 30.16 M
12:55 am CDT N 0.0 10.00 Mostly Cloudy -- 70.0 56.3 62% NA NA 30.16 M
12:35 am CDT N 0.0 10.00 Overcast -- 71.0 56.3 60% NA NA 30.16 M
11:55 pm CDT N 0.0 10.00 Mostly Cloudy -- 70.0 55.9 60% NA NA 30.16 M
10:55 pm CDT S 3.5 10.00 Partly Cloudy -- 72.0 54.9 55% NA NA 30.15 M
9:55 pm CDT SE 5.8 10.00 Fair -- 74.0 53.8 50% NA NA 30.13 M
8:55 pm CDT SE 4.6 10.00 Fair -- 76.0 52.5 44% NA NA 30.12 M
7:50 pm CDT E 5.8 10.00 Fair -- 81.0 52.5 38% NA 80 30.10 M
6:55 pm CDT NE 4.6 10.00 Fair -- 83.0 52.3 35% NA 82 30.10 M
5:55 pm CDT E 8.1 10.00 Partly Cloudy -- 84.0 53.2 35% NA 83 30.10 M
4:55 pm CDT N 6.9 10.00 Fair -- 84.0 53.1 34% NA 82 30.10 M
3:55 pm CDT NE 3.5 10.00 Mostly Cloudy -- 83.0 54.0 37% NA 82 30.12 M
2:55 pm CDT E 11.5 10.00 Partly Cloudy -- 84.0 54.7 37% NA 83 30.15 M
1:55 pm CDT NE 10.4 G 17.3 10.00 Partly Cloudy -- 83.0 58.3 42% NA 83 30.17 M
12:55 pm CDT E 5.8 10.00 Partly Cloudy -- 80.0 59.4 50% NA 81 30.20 M
11:55 am CDT NE 5.8 10.00 Partly Cloudy -- 77.0 60.3 56% NA NA 30.21 M
10:55 am CDT N 0.0 10.00 Partly Cloudy -- 73.0 60.8 65% NA NA 30.22 M
9:55 am CDT E 4.6 10.00 Fair -- 71.0 59.9 68% NA NA 30.20 M
8:55 am CDT N 0.0 10.00 Overcast -- 67.0 58.8 75% NA NA 30.19 M
7:55 am CDT N 0.0 10.00 Partly Cloudy -- 66.0 58.1 75% NA NA 30.16 M
6:55 am CDT N 6.9 10.00 Partly Cloudy -- 67.0 56.7 70% NA NA 30.13 M
5:55 am CDT N 4.6 10.00 Mostly Cloudy -- 68.0 55.4 64% NA NA 30.12 M
4:55 am CDT NW 4.6 10.00 Partly Cloudy -- 69.0 55.6 62% NA NA 30.12 M
3:55 am CDT NW 5.8 10.00 Fair -- 70.0 54.5 58% NA NA 30.12 M

Regional Weather Observation


Wink, Winkler County Airport, TX (KINK)

A Few Clouds
70.0 F

Pine Springs, Guadalupe Mountains National Park, TX (KGDP)

Fair
65.0 F

Carlsbad, Cavern City Air Terminal Airport, NM (KCNM)

Mostly Cloudy
67.0 F

Hobbs / Lea County, NM (KHOB)

A Few Clouds
64.0 F

Odessa, Odessa-Schlemeyer Field, TX (KODO)

Partly Cloudy
68.0 F

Alpine, Alpine-Casparis Municipal Airport, TX (KE38)

Fair
59.0 F